FW0743 Weather Reports


time (UTC)temp
F
wind
direction
speed
knots
gust
knots
rain 1hr
in
rain 24hr
in
rain mn
in
humidity
%
barometer
mb
20260507101510 31 309 0.0 2.6 0.00 0.22 0.00 90 1012.3
20260507100010 31 269 0.0 0.9 0.00 0.23 0.00 89 1012.6
20260507094508 31 269 0.0 2.6 0.00 0.23 0.00 88 1012.4
20260507093008 31 249 0.9 2.6 0.00 0.24 0.00 88 1012.5
20260507091532 32 252 0.0 2.6 0.00 0.26 0.00 86 1012.5
20260507090011 33 314 0.0 1.7 0.00 0.27 0.00 86 1012.5
20260507084504 33 246 0.0 1.7 0.00 0.28 0.00 86 1012.6
20260507083016 33 313 0.0 2.6 0.00 0.29 0.00 85 1012.5
20260507081513 33 284 0.0 1.7 0.00 0.30 0.00 84 1012.6
20260507080013 34 284 0.0 2.6 0.00 0.31 0.00 82 1012.7
20260507074513 35 284 0.0 3.5 0.00 0.32 0.00 81 1012.4
20260507073007 36 308 0.0 3.5 0.00 0.33 0.00 80 1012.3
20260507071512 36 306 0.9 2.6 0.00 0.36 0.00 78 1012.2
20260507070016 37 287 0.9 7.8 0.00 0.37 0.00 75 1012.0
20260507064515 37 315 2.6 7.0 0.00 0.37 0.00 74 1012.0
20260507063006 37 308 2.6 7.8 0.00 0.38 0.00 74 1012.2
20260507061525 37 333 2.6 7.8 0.00 0.39 0.00 74 1012.2
20260507060026 38 323 2.6 9.6 0.00 0.40 0.00 72 1012.4
20260507054515 39 323 6.1 10.4 0.00 0.41 0.00 75 1012.3
20260507053004 39 305 6.1 10.4 0.00 0.41 0.00 82 1012.4
20260507051507 39 331 1.7 7.8 0.00 0.41 0.00 88 1012.3
20260507050027 39 300 3.5 8.7 0.00 0.41 0.00 90 1012.2
20260507044531 39 317 3.5 7.0 0.00 0.42 0.00 92 1012.3
20260507043016 39 264 4.3 8.7 0.00 0.44 0.00 93 1012.3
20260507041503 40 310 2.6 8.7 0.00 0.45 0.00 93 1012.1
20260507040010 40 338 1.7 3.5 0.00 0.47 0.00 93 1012.0
20260507034512 40 321 1.7 4.3 0.00 0.48 0.47 92 1012.0
20260507033019 40 293 0.9 2.6 0.00 0.50 0.47 93 1011.9
20260507031517 40 335 0.9 2.6 0.00 0.51 0.47 92 1012.1
20260507030008 40 336 0.9 3.5 0.00 0.52 0.47 91 1011.8
20260507024511 41 341 1.7 7.0 0.00 0.55 0.47 91 1012.1
20260507023017 41 343 0.9 2.6 0.00 0.57 0.47 93 1012.1
20260507021520 41 281 0.0 2.6 0.00 0.58 0.47 94 1012.2
20260507020022 41 281 0.0 1.7 0.00 0.61 0.47 94 1012.2
20260507014510 41 281 0.0 2.6 0.00 0.63 0.47 93 1012.2
20260507013011 41 281 0.0 0.9 0.00 0.65 0.47 93 1012.0
20260507011528 41 281 0.0 1.7 0.00 0.68 0.47 93 1011.8
20260507010022 41 281 0.0 1.7 0.00 0.69 0.47 92 1011.7
20260507004524 41 281 0.0 1.7 0.00 0.70 0.47 92 1011.7
20260507003010 41 281 0.9 2.6 0.00 0.71 0.47 92 1011.7
20260507001518 41 281 0.9 3.5 0.00 0.76 0.47 92 1011.6
20260507000026 42 287 0.9 2.6 0.00 0.81 0.47 91 1011.4
20260506234522 42 244 0.0 2.6 0.00 0.81 0.47 91 1011.0
20260506233023 42 305 0.9 3.5 0.00 0.81 0.47 91 1010.8
20260506231513 42 346 1.7 3.5 0.00 0.81 0.47 90 1010.5
20260506230017 42 11 0.0 2.6 0.00 0.81 0.47 90 1010.2
20260506224523 42 19 0.0 2.6 0.00 0.81 0.47 90 1010.7
20260506223024 42 348 0.0 2.6 0.00 0.81 0.47 90 1010.7
20260506221526 42 351 1.7 4.3 0.00 0.81 0.47 89 1010.7
20260506220019 43 329 1.7 7.0 0.00 0.81 0.47 90 1010.8
20260506214522 43 298 4.3 7.8 0.00 0.81 0.47 90 1010.6
20260506213011 43 342 3.5 7.0 0.00 0.81 0.47 91 1010.4
20260506211512 42 343 2.6 9.6 0.00 0.81 0.47 91 1010.6
20260506210013 43 5 3.5 7.8 0.00 0.81 0.47 92 1010.4
20260506204523 42 345 2.6 8.7 0.00 0.81 0.47 93 1010.0
20260506203003 42 348 5.2 8.7 0.00 0.81 0.47 94 1009.7
20260506201508 42 25 2.6 11.3 0.00 0.81 0.47 95 1009.7
20260506200019 42 313 2.6 11.3 0.00 0.81 0.47 95 1009.9
20260506194516 42 347 2.6 10.4 0.00 0.81 0.47 95 1010.0
20260506193020 42 347 5.2 12.2 0.00 0.81 0.47 95 1009.8
20260506191509 42 339 5.2 12.2 0.00 0.81 0.47 94 1009.8
20260506190009 43 351 2.6 9.6 0.00 0.82 0.47 94 1009.5
20260506184516 43 335 3.5 8.7 0.00 0.82 0.47 94 1009.5
20260506183018 43 360 5.2 7.8 0.00 0.82 0.47 94 1009.2
20260506181522 43 344 4.3 10.4 0.00 0.82 0.47 94 1009.0
20260506180006 43 355 3.5 7.8 0.00 0.82 0.47 94 1008.8
20260506174509 43 11 1.7 9.6 0.00 0.82 0.47 95 1008.8
20260506173017 43 346 2.6 8.7 0.00 1.05 0.47 95 1008.9
20260506171520 43 5 2.6 5.2 0.00 1.09 0.47 95 1008.5
20260506170021 43 5 2.6 5.2 0.00 1.09 0.47 95 1008.5
20260506164508 43 19 1.7 7.0 0.00 1.09 0.47 96 1008.5
20260506163019 42 348 2.6 7.0 0.00 1.09 0.47 96 1008.7
20260506161518 42 9 2.6 5.2 0.00 1.09 0.47 96 1008.7
20260506160023 43 348 0.9 4.3 0.00 1.09 0.47 97 1008.9
20260506154536 42 355 2.6 6.1 0.00 1.09 0.47 97 1009.0
20260506153009 42 331 1.7 6.1 0.00 1.09 0.47 97 1009.1
20260506151514 42 322 2.6 4.3 0.00 1.09 0.47 97 1008.9
20260506150020 42 55 0.9 5.2 0.01 1.09 0.47 97 1008.5
20260506144522 42 28 0.9 6.1 0.02 1.09 0.47 97 1008.4
20260506143026 41 5 1.7 3.5 0.03 1.09 0.47 97 1008.6
20260506141508 41 355 0.9 3.5 0.04 1.09 0.47 97 1008.7
20260506140016 41 360 0.9 2.6 0.03 1.08 0.46 97 1008.7
20260506134520 40 38 0.9 3.5 0.04 1.07 0.45 97 1008.7
20260506133026 41 5 0.0 3.5 0.05 1.05 0.44 97 1008.9
20260506131529 40 330 1.7 4.3 0.05 1.04 0.43 97 1009.0
20260506130012 40 11 1.7 4.3 0.06 1.04 0.43 97 1009.0
20260506124519 40 5 0.9 3.5 0.05 1.03 0.41 97 1009.0
20260506123024 40 5 1.7 3.5 0.05 1.01 0.39 97 1008.8
20260506121503 40 65 0.0 3.5 0.06 1.00 0.38 97 1008.6
20260506120010 40 26 0.9 4.3 0.08 0.99 0.37 97 1008.8
20260506114514 40 18 1.7 7.8 0.08 0.98 0.36 97 1008.8
20260506113022 40 44 1.7 6.1 0.09 0.96 0.34 97 1008.8
20260506111528 41 13 1.7 6.1 0.07 0.94 0.32 97 1009.2
20260506110008 41 28 0.9 3.5 0.05 0.91 0.29 97 1009.3
20260506104512 41 41 1.7 4.3 0.04 0.90 0.28 97 1009.2
20260506103022 41 342 1.7 4.3 0.02 0.87 0.25 97 1009.1